This demonstration page uses our WeatherBlox Daily Observations layout. Learn more.

Left ArrowRight Arrow

39.92423, -83.80882

Hourly Observations for February 19, 2019

Temp ( °F °C ) Dew Point ( °F °C ) Humidity (%) Winds ( mph kmh ) Pressure ( in mb ) Visibility ( mi km ) Precip ( " mm )
12:18 am 00:18 Cloudy 25 -4 21 -6 86 86 N N/A 30.57 1035 10 16.0934 N/A
12:56 am 00:56 Cloudy 25 -3.9 22 -5.6 88 88 N N/A 30.55 1035 10 16.0934 N/A
1:56 am 01:56 Cloudy 25 -3.9 20 -6.7 81 81 N 3 6 30.57 1035 10 16.0934 N/A
2:43 am 02:43 Cloudy 25 -4 19 -7 80 80 N N/A 30.6 1036 10 16.0934 N/A
2:56 am 02:56 Cloudy 23 -5 19 -7.2 85 85 N N/A 30.58 1036 10 16.0934 N/A
3:56 am 03:56 Clear 21 -6.1 19 -7.2 92 92 N N/A 30.58 1036 10 16.0934 N/A
4:56 am 04:56 Clear 21 -6.1 19 -7.2 92 92 N N/A 30.61 1037 10 16.0934 N/A
5:56 am 05:56 Clear 20 -6.7 19 -7.2 96 96 N N/A 30.63 1037 10 16.0934 N/A
6:56 am 06:56 Clear 18 -7.8 18 -7.8 100 100 N N/A 30.64 1038 10 16.0934 N/A
7:56 am 07:56 Sunny 19 -7.2 18 -7.8 96 96 N N/A 30.66 1038 9 14.48406 N/A
9:56 am 09:56 Sunny 26 -3.3 21 -6.1 81 81 E 5 7 30.68 1039 10 16.0934 N/A
10:56 am 10:56 Sunny 27 -2.8 21 -6.1 78 78 ESE 6 9 30.68 1039 10 16.0934 N/A
11:56 am 11:56 Sunny 29 -1.7 22 -5.6 75 75 ENE 5 7 30.66 1038 10 16.0934 N/A
12:56 pm 12:56 Partly Cloudy 31 -0.6 24 -4.4 76 76 ESE 8 13 30.63 1037 10 16.0934 N/A
1:14 pm 13:14 Mostly Cloudy 30 -1 23 -5 75 75 ESE 7 11 30.63 1037 10 16.0934 N/A
1:27 pm 13:27 Partly Cloudy 30 -1 25 -4 80 80 ENE 8 13 30.61 1037 10 16.0934 N/A
1:47 pm 13:47 Mostly Cloudy 30 -1 25 -4 80 80 ESE 7 11 30.61 1037 10 16.0934 N/A
1:54 pm 13:54 Partly Cloudy 30 -1 25 -4 80 80 E 8 13 30.6 1036 10 16.0934 N/A
1:56 pm 13:56 Mostly Sunny 31 -0.6 25 -3.9 79 79 ESE 7 11 30.58 1036 10 16.0934 N/A
2:56 pm 14:56 Sunny 30 -1.1 24 -4.4 79 79 E 10 17 30.56 1035 10 16.0934 N/A
3:56 pm 15:56 Sunny 30 -1.1 24 -4.4 79 79 E 9 15 30.55 1035 10 16.0934 N/A
4:56 pm 16:56 Sunny 30 -1.1 25 -3.9 82 82 E 9 15 30.54 1034 10 16.0934 N/A
5:56 pm 17:56 Sunny 29 -1.7 25 -3.9 85 85 E 10 17 30.54 1034 10 16.0934 N/A
6:56 pm 18:56 Clear 29 -1.7 25 -3.9 85 85 E 12 19 30.52 1034 10 16.0934 N/A
7:56 pm 19:56 Clear 29 -1.7 25 -3.9 85 85 E 14 22 30.49 1033 10 16.0934 N/A
8:56 pm 20:56 Clear 30 -1.1 25 -3.9 82 82 E 12 19 30.47 1032 10 16.0934 N/A
9:56 pm 21:56 Clear 30 -1.1 24 -4.4 79 79 E 16 26 30.44 1031 10 16.0934 N/A
10:56 pm 22:56 Mostly Cloudy 30 -1.1 24 -4.4 79 79 E 13 20 30.41 1030 10 16.0934 N/A
11:56 pm 23:56 Cloudy 30 -1.1 24 -4.4 79 79 E 14 22 30.38 1029 10 16.0934 N/A

Powered by AerisWeather